Location: Kott?ru
(16.6209°N, 80.6208°E)
Time: 06:14:32
(UTC+00:00)

Hubble Space Telescope - Pass Details

Date: 12 February 2023
Orbit: 527 x 530 km, 28.5° (Epoch: 27 March)

Event Time Altitude Azimuth Distance (km) Brightness Sun altitude
Rises 13:27:16 0° 264° (W) 2,646 6.4 -12.2°
Reaches altitude 10° 13:29:39 10° 273° (W) 1,756 4.7 -12.8°
Maximum altitude 13:33:24 36° 341° (NNW) 844 1.8 -13.6°
Enters shadow 13:36:00 17° 40° (NE) 1,362 2.4 -14.3°
